Regional Weather Roundup
Issued by NWS

Home | Current Version | Previous Version | Text Only | Print | Product List | Glossary On
Versions: 1 2 3 4 5 6 7 8 9 10 11 12 13 14 15 16 17 18 19 20 21 22 23 24 25 26 27 28 29 30 31 32 33 34 35 36 37 38 39 40 41 42 43 44 45 46 47 48 49 50
000
ASUS43 KFSD 230510
RWRSD

WEATHER ROUNDUP FOR SOUTH DAKOTA
NATIONAL WEATHER SERVICE SIOUX FALLS SD
1200 AM CDT TUE MAY 23 2017

NOTE: "FAIR" INDICATES FEW OR NO CLOUDS BELOW 12,000 FEET WITH NO
SIGNIFICANT WEATHER AND/OR OBSTRUCTIONS TO VISIBILITY.


SDZ001>005-009-010-012>017-230600-
NORTHWEST AND NORTH CENTRAL SOUTH DAKOTA

CITY           SKY/WX    TMP DP  RH WIND       PRES   REMARKS
BUFFALO          N/A     51  42  71 NW12      30.07R
FAITH            N/A     50  41  71 W12       30.07S
MOBRIDGE       CLOUDY    52  42  69 NW7       29.97S
$$

SDZ012>016-024>037-041>051-057-063-072>074-230600-
SOUTHWEST AND SOUTH CENTRAL SOUTH DAKOTA

CITY           SKY/WX    TMP DP  RH WIND       PRES   REMARKS
RAPID CTY ARPT PTCLDY    45  38  76 NW8       30.13S
PIERRE         CLOUDY    52  39  61 W7        30.01F
CUSTER         CLOUDY    38  32  79 N6        30.18R
ELLSWORTH AFB  MOCLDY    43  41  92 W9        30.13S
PHILIP         CLOUDY    47  44  90 NW10      30.07S
PINE RIDGE     CLOUDY    43  42  97 SW5       30.14S
SPEARFISH      CLOUDY    45  41  87 W7        30.18S
WINNER         CLOUDY    51  45  79 NW6       30.04R
$$

SDZ004>011-016>023-039-040-230600-
NORTHEAST SOUTH DAKOTA

CITY           SKY/WX    TMP DP  RH WIND       PRES   REMARKS
ABERDEEN       CLOUDY    49  43  80 NW9       29.97S
WATERTOWN      LGT RAIN  47  43  86 NW12      29.91F
BROOKINGS      LGT RAIN  48  42  80 NW15G22   29.92F
SISSETON         N/A     49  46  90 N12       29.90S
$$

SDZ017-020-022-023-036>040-048>070-230600-
SOUTHEAST SOUTH DAKOTA

CITY           SKY/WX    TMP DP  RH WIND       PRES   REMARKS
SIOUX FALLS    CLOUDY    51  47  86 NW10      29.92S
HURON          LGT RAIN  48  44  86 NW6       29.98S
CHAMBERLAIN    CLOUDY    53  43  70 N6        30.02S
MITCHELL       MOCLDY    52  44  74 N13       29.99R
YANKTON        CLOUDY    49  45  86 W8        29.96S
$$

ABBREVIATIONS USED IN REMARKS
   TC - TEMPERATURE IN CELSIUS
  WCI - WIND CHILL INDEX
   HX - HEAT INDEX
  VSB - VISIBILITY




USA.gov is the U.S. government's official web portal to all federal, state and local government web resources and services.